Pecos, TX

5:43 PM CDT on June 25, 2017 (GMT -0500)
Pecos Municipal

Weather History for KPEQ - December, 2011

Change the Weather History Date:

Thursday, December 29, 2011

  Actual Average Record
Temperature  
Mean Temperature 50 °F -  
Max Temperature 72 °F 60 °F 82 °F (1951)
Min Temperature 28 °F 30 °F 2 °F (1983)
Degree Days  
Heating Degree Days 15    
Moisture  
Dew Point 23 °F    
Average Humidity 40    
Maximum Humidity 84    
Minimum Humidity 15    
Precipitation  
Precipitation 0.00 in - - ()
Sea Level Pressure  
Sea Level Pressure 29.99 in    
Wind  
Wind Speed 8 mph (WSW)    
Max Wind Speed 22 mph    
Max Gust Speed 28 mph    
Visibility 10 miles    
Events      
Averages and records for this station are not official NWS values.
T = Trace of Precipitation, MM = Missing Value Source: NWS Daily Summary

Daily Weather History Graph

Daily Weather History Graph

Search for Another Location

Airport or City:

Trip Planner

Search our weather history database for the weather conditions in past years. The results will help you decide how hot, cold, wet, or windy it might be!

Date:

Astronomy

Dec. 29, 2011 Rise Set
Actual Time 7:52 AM CST 5:59 PM CST
Civil Twilight 7:25 AM CST 6:26 PM CST
Nautical Twilight 6:55 AM CST 6:56 PM CST
Astronomical Twilight 6:25 AM CST 7:26 PM CST
Moon 11:06 AM CST (12/29) 11:16 PM CST (12/29)
Length of Visible Light 11h 01m
Length of Day
10h 07m
Waxing Crescent, 27% of the Moon is Illuminated
Dec 29
Waxing Crescent
Jan 1
First Quarter
Jan 9
Full
Jan 16
Last Quarter
Jan 23
New

Hourly Weather History & Observations

Time (CST) Temp. Windchill Dew Point Humidity Pressure Visibility Wind Dir Wind Speed Gust Speed Precip Events Conditions
12:15 AM 35.4 °F 30.5 °F 25.5 °F 67% 30.12 in 10.0 mi WSW 5.8 mph - N/A   Clear
12:35 AM 34.9 °F 32.0 °F 25.9 °F 70% 30.11 in 10.0 mi WSW 3.5 mph - N/A   Clear
12:55 AM 34.5 °F 30.4 °F 26.4 °F 72% 30.10 in 10.0 mi West 4.6 mph - N/A   Clear
1:15 AM 35.2 °F - 26.2 °F 70% 30.10 in 10.0 mi Calm Calm - N/A   Clear
1:35 AM 32.7 °F - 25.0 °F 73% 30.10 in 10.0 mi Calm Calm - N/A   Clear
1:55 AM 32.4 °F - 25.0 °F 74% 30.10 in 10.0 mi Calm Calm - N/A   Clear
2:15 AM 32.9 °F - 25.2 °F 73% 30.10 in 10.0 mi Calm Calm - N/A   Clear
2:35 AM 32.2 °F 28.9 °F 25.5 °F 76% 30.09 in 10.0 mi West 3.5 mph - N/A   Clear
2:55 AM 32.4 °F 27.9 °F 25.2 °F 75% 30.09 in 10.0 mi WSW 4.6 mph - N/A   Clear
7:15 AM 28.2 °F - 24.1 °F 84% 30.05 in 10.0 mi Calm Calm - N/A   Clear
7:35 AM 29.7 °F - 24.6 °F 81% 30.05 in 10.0 mi Calm Calm - N/A   Clear
7:55 AM 29.3 °F 25.6 °F 24.1 °F 81% 30.06 in 10.0 mi ENE 3.5 mph - N/A   Clear
8:35 AM 28.9 °F - 24.4 °F 83% 30.06 in 10.0 mi Calm Calm - N/A   Clear
8:55 AM 30.2 °F - 25.7 °F 83% 30.07 in 10.0 mi Calm Calm - N/A   Clear
9:15 AM 32.2 °F - 27.9 °F 84% 30.07 in 10.0 mi Calm Calm - N/A   Clear
9:35 AM 35.4 °F - 29.5 °F 79% 30.07 in 10.0 mi Calm Calm - N/A   Clear
9:55 AM 38.1 °F - 30.4 °F 74% 30.06 in 10.0 mi Calm Calm - N/A   Clear
10:15 AM 41.9 °F - 31.5 °F 66% 30.07 in 10.0 mi Calm Calm - N/A   Clear
10:35 AM 45.0 °F - 31.8 °F 60% 30.06 in 10.0 mi Calm Calm - N/A   Clear
11:15 AM 55.6 °F - 27.1 °F 34% 30.05 in 10.0 mi WSW 18.4 mph - N/A   Clear
11:35 AM 60.4 °F - 23.4 °F 24% 30.04 in 10.0 mi West 18.4 mph 26.5 mph N/A   Clear
11:55 AM 62.4 °F - 21.9 °F 21% 30.02 in 10.0 mi West 17.3 mph 25.3 mph N/A   Clear
12:35 PM 65.3 °F - 20.7 °F 18% 29.99 in 10.0 mi WSW 18.4 mph 26.5 mph N/A   Clear
12:55 PM 66.7 °F - 21.7 °F 18% 29.97 in 10.0 mi West 19.6 mph - N/A   Clear
1:15 PM 67.8 °F - 21.6 °F 17% 29.95 in 10.0 mi WSW 20.7 mph 27.6 mph N/A   Clear
1:35 PM 68.4 °F - 21.2 °F 17% 29.94 in 10.0 mi West 19.6 mph 25.3 mph N/A   Clear
1:55 PM 68.5 °F - 21.4 °F 17% 29.92 in 10.0 mi West 19.6 mph - N/A   Clear
2:15 PM 69.3 °F - 21.4 °F 16% 29.91 in 10.0 mi West 20.7 mph - N/A   Clear
2:35 PM 70.2 °F - 21.6 °F 16% 29.90 in 10.0 mi West 18.4 mph 25.3 mph N/A   Clear
2:55 PM 71.4 °F - 22.1 °F 16% 29.91 in 10.0 mi West 21.9 mph - N/A   Clear
3:15 PM 71.8 °F - 22.1 °F 15% 29.91 in 10.0 mi West 20.7 mph - N/A   Clear
3:35 PM 72.3 °F - 22.5 °F 15% 29.92 in 10.0 mi West 20.7 mph 26.5 mph N/A   Clear
3:55 PM 72.5 °F - 22.8 °F 16% 29.91 in 10.0 mi West 15.0 mph 23.0 mph N/A   Clear
4:15 PM 72.5 °F - 22.5 °F 15% 29.91 in 10.0 mi West 17.3 mph 24.2 mph N/A   Clear
4:55 PM 71.4 °F - 21.7 °F 15% 29.90 in 10.0 mi West 17.3 mph 24.2 mph N/A   Clear
5:15 PM 70.3 °F - 22.5 °F 16% 29.90 in 10.0 mi WSW 12.7 mph - N/A   Clear
5:55 PM 66.7 °F - 22.8 °F 19% 29.90 in 10.0 mi SW 10.4 mph - N/A   Clear
6:15 PM 64.0 °F - 23.5 °F 21% 29.90 in 10.0 mi SW 10.4 mph - N/A   Clear
6:35 PM 61.9 °F - 23.5 °F 23% 29.90 in 10.0 mi SW 8.1 mph - N/A   Clear
6:55 PM 58.8 °F - 24.4 °F 27% 29.91 in 10.0 mi SW 8.1 mph - N/A   Clear
7:15 PM 57.7 °F - 24.6 °F 28% 29.91 in 10.0 mi WSW 8.1 mph - N/A   Clear
7:35 PM 58.3 °F - 23.2 °F 26% 29.91 in 10.0 mi SSW 8.1 mph - N/A   Clear
7:55 PM 57.4 °F - 21.7 °F 25% 29.91 in 10.0 mi SSW 10.4 mph - N/A   Clear
8:15 PM 56.8 °F - 21.0 °F 25% 29.92 in 10.0 mi WSW 9.2 mph - N/A   Clear
8:55 PM 57.9 °F - 19.2 °F 22% 29.93 in 10.0 mi West 11.5 mph - N/A   Clear
9:35 PM 58.3 °F - 18.0 °F 21% 29.93 in 10.0 mi West 16.1 mph - N/A   Clear
9:55 PM 59.2 °F - 17.4 °F 20% 29.94 in 10.0 mi West 18.4 mph - N/A   Clear
10:15 PM 58.3 °F - 18.3 °F 21% 29.95 in 10.0 mi West 15.0 mph - N/A   Clear
10:35 PM 57.7 °F - 19.0 °F 22% 29.95 in 10.0 mi West 16.1 mph - N/A   Clear
10:55 PM 57.0 °F - 19.9 °F 24% 29.95 in 10.0 mi WSW 16.1 mph - N/A   Clear
11:15 PM 57.9 °F - 20.3 °F 23% 29.95 in 10.0 mi WSW 15.0 mph - N/A   Clear
11:35 PM 57.9 °F - 20.1 °F 23% 29.95 in 10.0 mi WSW 15.0 mph - N/A   Clear
11:55 PM 57.4 °F - 20.1 °F 24% 29.95 in 10.0 mi WSW 12.7 mph - N/A   Clear